Year,Month,Day,Hour,Minute,Value (Times are PST for temperature in C)
2015,04,28,01,16,12.10
2015,04,28,01,17,12.10
2015,04,28,01,18,12.10
2015,04,28,01,19,12.10
2015,04,28,01,20,12.10
2015,04,28,01,21,12.10
2015,04,28,01,22,12.10
2015,04,28,01,23,12.10
2015,04,28,01,24,12.10
2015,04,28,01,25,12.10
2015,04,28,01,26,12.10
2015,04,28,01,27,12.10
2015,04,28,01,28,12.10
2015,04,28,01,29,12.10
2015,04,28,01,30,12.10
2015,04,28,01,31,12.10
2015,04,28,01,32,12.10
2015,04,28,01,33,12.10
2015,04,28,01,34,12.10
2015,04,28,01,35,12.10
2015,04,28,01,36,12.10
2015,04,28,01,37,12.10
2015,04,28,01,38,12.10
2015,04,28,01,39,12.10
2015,04,28,01,40,12.10
2015,04,28,01,41,12.10
2015,04,28,01,42,12.10
2015,04,28,01,43,12.10
2015,04,28,01,44,12.10
2015,04,28,01,45,12.10
2015,04,28,01,46,11.90
2015,04,28,01,47,11.90
2015,04,28,01,48,11.90
2015,04,28,01,49,11.90
2015,04,28,01,50,11.90
2015,04,28,01,51,11.90
2015,04,28,01,52,11.90
2015,04,28,01,53,11.90
2015,04,28,01,54,11.90
2015,04,28,01,55,11.90
2015,04,28,01,56,11.90
2015,04,28,01,57,11.90
2015,04,28,01,58,11.90
2015,04,28,01,59,11.90
2015,04,28,02,00,11.90
2015,04,28,02,01,11.90
2015,04,28,02,02,11.90
2015,04,28,02,03,11.90
2015,04,28,02,04,11.90
2015,04,28,02,05,11.90
2015,04,28,02,06,11.90
2015,04,28,02,07,11.90
2015,04,28,02,08,11.90
2015,04,28,02,09,11.90
2015,04,28,02,10,11.90
2015,04,28,02,11,11.90
2015,04,28,02,12,11.90
2015,04,28,02,13,11.90
2015,04,28,02,14,11.90
2015,04,28,02,15,11.90
2015,04,28,02,16,12.40
2015,04,28,02,17,12.40
2015,04,28,02,18,12.40
2015,04,28,02,19,12.40
2015,04,28,02,20,12.40
2015,04,28,02,21,12.40
2015,04,28,02,22,12.40
2015,04,28,02,23,12.40
2015,04,28,02,24,12.40
2015,04,28,02,25,12.40
2015,04,28,02,26,12.40
2015,04,28,02,27,12.40
2015,04,28,02,28,12.40
2015,04,28,02,29,12.40
2015,04,28,02,30,12.40
2015,04,28,02,31,12.40
2015,04,28,02,32,12.40
2015,04,28,02,33,12.40
2015,04,28,02,34,12.40
2015,04,28,02,35,12.40
2015,04,28,02,36,12.40
2015,04,28,02,37,12.40
2015,04,28,02,38,12.40
2015,04,28,02,39,12.40
2015,04,28,02,40,12.40
2015,04,28,02,41,12.40
2015,04,28,02,42,12.40
2015,04,28,02,43,12.40
2015,04,28,02,44,12.40
2015,04,28,02,45,12.40
2015,04,28,02,46,13.90
2015,04,28,02,47,13.90
2015,04,28,02,48,13.90
2015,04,28,02,49,13.90
2015,04,28,02,50,13.90
2015,04,28,02,51,13.90
2015,04,28,02,52,13.90
2015,04,28,02,53,13.90
2015,04,28,02,54,13.90
2015,04,28,02,55,13.90
2015,04,28,02,56,13.90
2015,04,28,02,57,13.90
2015,04,28,02,58,13.90
2015,04,28,02,59,13.90
2015,04,28,03,00,13.90
2015,04,28,03,01,13.90
2015,04,28,03,02,13.90
2015,04,28,03,03,13.90
2015,04,28,03,04,13.90
2015,04,28,03,05,13.90
2015,04,28,03,06,13.90
2015,04,28,03,07,13.90
2015,04,28,03,08,13.90
2015,04,28,03,09,13.90
2015,04,28,03,10,13.90
2015,04,28,03,11,13.90
2015,04,28,03,12,13.90
2015,04,28,03,13,13.90
2015,04,28,03,14,13.90
2015,04,28,03,15,13.90
2015,04,28,03,16,14.60
2015,04,28,03,17,14.60
2015,04,28,03,18,14.60
2015,04,28,03,19,14.60
2015,04,28,03,20,14.60
2015,04,28,03,21,14.60
2015,04,28,03,22,14.60
2015,04,28,03,23,14.60
2015,04,28,03,24,14.60
2015,04,28,03,25,14.60
2015,04,28,03,26,14.60
2015,04,28,03,27,14.60
2015,04,28,03,28,14.60
2015,04,28,03,29,14.60
2015,04,28,03,30,14.60
2015,04,28,03,31,14.60
2015,04,28,03,32,14.60
2015,04,28,03,33,14.60
2015,04,28,03,34,14.60
2015,04,28,03,35,14.60
2015,04,28,03,36,14.60
2015,04,28,03,37,14.60
2015,04,28,03,38,14.60
2015,04,28,03,39,14.60
2015,04,28,03,40,14.60
2015,04,28,03,41,14.60
2015,04,28,03,42,14.60
2015,04,28,03,43,14.60
2015,04,28,03,44,14.60
2015,04,28,03,45,14.60
2015,04,28,03,46,14.70
2015,04,28,03,47,14.70
2015,04,28,03,48,14.70
2015,04,28,03,49,14.70
2015,04,28,03,50,14.70
2015,04,28,03,51,14.70
2015,04,28,03,52,14.70
2015,04,28,03,53,14.70
2015,04,28,03,54,14.70
2015,04,28,03,55,14.70
2015,04,28,03,56,14.70
2015,04,28,03,57,14.70
2015,04,28,03,58,14.70
2015,04,28,03,59,14.70
2015,04,28,04,00,14.70
2015,04,28,04,01,14.70
2015,04,28,04,02,14.70
2015,04,28,04,03,14.70
2015,04,28,04,04,14.70
2015,04,28,04,05,14.70
2015,04,28,04,06,14.70
2015,04,28,04,07,14.70
2015,04,28,04,08,14.70
2015,04,28,04,09,14.70
2015,04,28,04,10,14.70
2015,04,28,04,11,14.70
2015,04,28,04,12,14.70
2015,04,28,04,13,14.70
2015,04,28,04,14,14.70
2015,04,28,04,15,14.70
2015,04,28,04,16,14.40
2015,04,28,04,17,14.40
2015,04,28,04,18,14.40
2015,04,28,04,19,14.40
2015,04,28,04,20,14.40
2015,04,28,04,21,14.40
2015,04,28,04,22,14.40
2015,04,28,04,23,14.40
2015,04,28,04,24,14.40
2015,04,28,04,25,14.40
2015,04,28,04,26,14.40
2015,04,28,04,27,14.40
2015,04,28,04,28,14.40
2015,04,28,04,29,14.40
2015,04,28,04,30,14.40
2015,04,28,04,31,14.40
2015,04,28,04,32,14.40
2015,04,28,04,33,14.40
2015,04,28,04,34,14.40
2015,04,28,04,35,14.40
2015,04,28,04,36,14.40
2015,04,28,04,37,14.40
2015,04,28,04,38,14.40
2015,04,28,04,39,14.40
2015,04,28,04,40,14.40
2015,04,28,04,41,14.40
2015,04,28,04,42,14.40
2015,04,28,04,43,14.40
2015,04,28,04,44,14.40
2015,04,28,04,45,14.40
2015,04,28,04,46,13.90
2015,04,28,04,47,13.90
2015,04,28,04,48,13.90
2015,04,28,04,49,13.90
2015,04,28,04,50,13.90
2015,04,28,04,51,13.90
2015,04,28,04,52,13.90
2015,04,28,04,53,13.90
2015,04,28,04,54,13.90
2015,04,28,04,55,13.90
2015,04,28,04,56,13.90
2015,04,28,04,57,13.90
2015,04,28,04,58,13.90
2015,04,28,04,59,13.90
2015,04,28,05,00,13.90
2015,04,28,05,01,13.90
2015,04,28,05,02,13.90
2015,04,28,05,03,13.90
2015,04,28,05,04,13.90
2015,04,28,05,05,13.90
2015,04,28,05,06,13.90
2015,04,28,05,07,13.90
2015,04,28,05,08,13.90
2015,04,28,05,09,13.90
2015,04,28,05,10,13.90
2015,04,28,05,11,13.90
2015,04,28,05,12,13.90
2015,04,28,05,13,13.90
2015,04,28,05,14,13.90
2015,04,28,05,15,13.90
2015,04,28,05,16,14.10
2015,04,28,05,17,14.10
2015,04,28,05,18,14.10
2015,04,28,05,19,14.10
2015,04,28,05,20,14.10
2015,04,28,05,21,14.10
2015,04,28,05,22,14.10
2015,04,28,05,23,14.10
2015,04,28,05,24,14.10
2015,04,28,05,25,14.10
2015,04,28,05,26,14.10
2015,04,28,05,27,14.10
2015,04,28,05,28,14.10
2015,04,28,05,29,14.10
2015,04,28,05,30,14.10
2015,04,28,05,31,14.10
2015,04,28,05,32,14.10
2015,04,28,05,33,14.10
2015,04,28,05,34,14.10
2015,04,28,05,35,14.10
2015,04,28,05,36,14.10
2015,04,28,05,37,14.10
2015,04,28,05,38,14.10
2015,04,28,05,39,14.10
2015,04,28,05,40,14.10
2015,04,28,05,41,14.10
2015,04,28,05,42,14.10
2015,04,28,05,43,14.10
2015,04,28,05,44,14.10
2015,04,28,05,45,14.10
2015,04,28,05,46,14.30
2015,04,28,05,47,14.30
2015,04,28,05,48,14.30
2015,04,28,05,49,14.30
2015,04,28,05,50,14.30
2015,04,28,05,51,14.30
2015,04,28,05,52,14.30
2015,04,28,05,53,14.30
2015,04,28,05,54,14.30
2015,04,28,05,55,14.30
2015,04,28,05,56,14.30
2015,04,28,05,57,14.30
2015,04,28,05,58,14.30
2015,04,28,05,59,14.30
2015,04,28,06,00,14.30
2015,04,28,06,01,14.30
2015,04,28,06,02,14.30
2015,04,28,06,03,14.30
2015,04,28,06,04,14.30
2015,04,28,06,05,14.30
2015,04,28,06,06,14.30
2015,04,28,06,07,14.30
2015,04,28,06,08,14.30
2015,04,28,06,09,14.30
2015,04,28,06,10,14.30
2015,04,28,06,11,14.30
2015,04,28,06,12,14.30
2015,04,28,06,13,14.30
2015,04,28,06,14,14.30
2015,04,28,06,15,14.30
2015,04,28,06,16,14.20
2015,04,28,06,17,14.20
2015,04,28,06,18,14.20
2015,04,28,06,19,14.20
2015,04,28,06,20,14.20
2015,04,28,06,21,14.20
2015,04,28,06,22,14.20
2015,04,28,06,23,14.20
2015,04,28,06,24,14.20
2015,04,28,06,25,14.20
2015,04,28,06,26,14.20
2015,04,28,06,27,14.20
2015,04,28,06,28,14.20
2015,04,28,06,29,14.20
2015,04,28,06,30,14.20
2015,04,28,06,31,14.20
2015,04,28,06,32,14.20
2015,04,28,06,33,14.20
2015,04,28,06,34,14.20
2015,04,28,06,35,14.20
2015,04,28,06,36,14.20
2015,04,28,06,37,14.20
2015,04,28,06,38,14.20
2015,04,28,06,39,14.20
2015,04,28,06,40,14.20
2015,04,28,06,41,14.20
2015,04,28,06,42,14.20
2015,04,28,06,43,14.20
2015,04,28,06,44,14.20
2015,04,28,06,45,14.20
2015,04,28,06,46,13.50
2015,04,28,06,47,13.50
2015,04,28,06,48,13.50
2015,04,28,06,49,13.50
2015,04,28,06,50,13.50
2015,04,28,06,51,13.50
2015,04,28,06,52,13.50
2015,04,28,06,53,13.50
2015,04,28,06,54,13.50
2015,04,28,06,55,13.50
2015,04,28,06,56,13.50
2015,04,28,06,57,13.50
2015,04,28,06,58,13.50
2015,04,28,06,59,13.50
2015,04,28,07,00,13.50
2015,04,28,07,01,13.50
2015,04,28,07,02,13.50
2015,04,28,07,03,13.50
2015,04,28,07,04,13.50
2015,04,28,07,05,13.50
2015,04,28,07,06,13.50
2015,04,28,07,07,13.50
2015,04,28,07,08,13.50
2015,04,28,07,09,13.50
2015,04,28,07,10,13.50
2015,04,28,07,11,13.50
2015,04,28,07,12,13.50
2015,04,28,07,13,13.50
2015,04,28,07,14,13.50
2015,04,28,07,15,13.50
2015,04,28,07,16,11.80
2015,04,28,07,17,11.80
2015,04,28,07,18,11.80
2015,04,28,07,19,11.80
2015,04,28,07,20,11.80
2015,04,28,07,21,11.80
2015,04,28,07,22,11.80
2015,04,28,07,23,11.80
2015,04,28,07,24,11.80
2015,04,28,07,25,11.80
2015,04,28,07,26,11.80
2015,04,28,07,27,11.80
2015,04,28,07,28,11.80
2015,04,28,07,29,11.80
2015,04,28,07,30,11.80
2015,04,28,07,31,11.80
2015,04,28,07,32,11.80
2015,04,28,07,33,11.80
2015,04,28,07,34,11.80
2015,04,28,07,35,11.80
2015,04,28,07,36,11.80
2015,04,28,07,37,11.80
2015,04,28,07,38,11.80
2015,04,28,07,39,11.80
2015,04,28,07,40,11.80
2015,04,28,07,41,11.80
2015,04,28,07,42,11.80
2015,04,28,07,43,11.80
2015,04,28,07,44,11.80
2015,04,28,07,45,11.80
2015,04,28,07,46,10.20
2015,04,28,07,47,10.20
2015,04,28,07,48,10.20
2015,04,28,07,49,10.20
2015,04,28,07,50,10.20
2015,04,28,07,51,10.20
2015,04,28,07,52,10.20
2015,04,28,07,53,10.20
2015,04,28,07,54,10.20
2015,04,28,07,55,10.20
2015,04,28,07,56,10.20
2015,04,28,07,57,10.20
2015,04,28,07,58,10.20
2015,04,28,07,59,10.20
2015,04,28,08,00,10.20
2015,04,28,08,01,10.20
2015,04,28,08,02,10.20
2015,04,28,08,03,10.20
2015,04,28,08,04,10.20
2015,04,28,08,05,10.20
2015,04,28,08,06,10.20
2015,04,28,08,07,10.20
2015,04,28,08,08,10.20
2015,04,28,08,09,10.20
2015,04,28,08,10,10.20
2015,04,28,08,11,10.20
2015,04,28,08,12,10.20
2015,04,28,08,13,10.20
2015,04,28,08,14,10.20
2015,04,28,08,15,10.20
2015,04,28,08,16,9.90
2015,04,28,08,17,9.90
2015,04,28,08,18,9.90
2015,04,28,08,19,9.90
2015,04,28,08,20,9.90
2015,04,28,08,21,9.90
2015,04,28,08,22,9.90
2015,04,28,08,23,9.90
2015,04,28,08,24,9.90
2015,04,28,08,25,9.90
2015,04,28,08,26,9.90
2015,04,28,08,27,9.90
2015,04,28,08,28,9.90
2015,04,28,08,29,9.90
2015,04,28,08,30,9.90
2015,04,28,08,31,9.90
2015,04,28,08,32,9.90
2015,04,28,08,33,9.90
2015,04,28,08,34,9.90
2015,04,28,08,35,9.90
2015,04,28,08,36,9.90
2015,04,28,08,37,9.90
2015,04,28,08,38,9.90
2015,04,28,08,39,9.90
2015,04,28,08,40,9.90
2015,04,28,08,41,9.90
2015,04,28,08,42,9.90
2015,04,28,08,43,9.90
2015,04,28,08,44,9.90
2015,04,28,08,45,9.90
2015,04,28,08,46,10.40
2015,04,28,08,47,10.40
2015,04,28,08,48,10.40
2015,04,28,08,49,10.40
2015,04,28,08,50,10.40
2015,04,28,08,51,10.40
2015,04,28,08,52,10.40
2015,04,28,08,53,10.40
2015,04,28,08,54,10.40
2015,04,28,08,55,10.40
2015,04,28,08,56,10.40
2015,04,28,08,57,10.40
2015,04,28,08,58,10.40
2015,04,28,08,59,10.40
2015,04,28,09,00,10.40
2015,04,28,09,01,10.40
2015,04,28,09,02,10.40
2015,04,28,09,03,10.40
2015,04,28,09,04,10.40
2015,04,28,09,05,10.40
2015,04,28,09,06,10.40
2015,04,28,09,07,10.40
2015,04,28,09,08,10.40
2015,04,28,09,09,10.40
2015,04,28,09,10,10.40
2015,04,28,09,11,10.40
2015,04,28,09,12,10.40
2015,04,28,09,13,10.40
2015,04,28,09,14,10.40
2015,04,28,09,15,10.40
2015,04,28,09,16,9.90
2015,04,28,09,17,9.90
2015,04,28,09,18,9.90
2015,04,28,09,19,9.90
2015,04,28,09,20,9.90
2015,04,28,09,21,9.90
2015,04,28,09,22,9.90
2015,04,28,09,23,9.90
2015,04,28,09,24,9.90
2015,04,28,09,25,9.90
2015,04,28,09,26,9.90
2015,04,28,09,27,9.90
2015,04,28,09,28,9.90
2015,04,28,09,29,9.90
2015,04,28,09,30,9.90
2015,04,28,09,31,9.90
2015,04,28,09,32,9.90
2015,04,28,09,33,9.90
2015,04,28,09,34,9.90
2015,04,28,09,35,9.90
2015,04,28,09,36,9.90
2015,04,28,09,37,9.90
2015,04,28,09,38,9.90
2015,04,28,09,39,9.90
2015,04,28,09,40,9.90
2015,04,28,09,41,9.90
2015,04,28,09,42,9.90
2015,04,28,09,43,9.90
2015,04,28,09,44,9.90
2015,04,28,09,45,9.90
2015,04,28,09,46,9.90
2015,04,28,09,47,9.90
2015,04,28,09,48,9.90
2015,04,28,09,49,9.90
2015,04,28,09,50,9.90
2015,04,28,09,51,9.90
2015,04,28,09,52,9.90
2015,04,28,09,53,9.90
2015,04,28,09,54,9.90
2015,04,28,09,55,9.90
2015,04,28,09,56,9.90
2015,04,28,09,57,9.90
2015,04,28,09,58,9.90
2015,04,28,09,59,9.90
2015,04,28,10,00,9.90
2015,04,28,10,01,9.90
2015,04,28,10,02,9.90
2015,04,28,10,03,9.90
2015,04,28,10,04,9.90
2015,04,28,10,05,9.90
2015,04,28,10,06,9.90
2015,04,28,10,07,9.90
2015,04,28,10,08,9.90
2015,04,28,10,09,9.90
2015,04,28,10,10,9.90
2015,04,28,10,11,9.90
2015,04,28,10,12,9.90
2015,04,28,10,13,9.90
2015,04,28,10,14,9.90
2015,04,28,10,15,9.90
2015,04,28,10,16,9.90
2015,04,28,10,17,9.90
2015,04,28,10,18,9.90
2015,04,28,10,19,9.90
2015,04,28,10,20,9.90
2015,04,28,10,21,9.90
2015,04,28,10,22,9.90
2015,04,28,10,23,9.90
2015,04,28,10,24,9.90
2015,04,28,10,25,9.90
2015,04,28,10,26,9.90
2015,04,28,10,27,9.90
2015,04,28,10,28,9.90
2015,04,28,10,29,9.90
2015,04,28,10,30,9.90
2015,04,28,10,31,9.90
2015,04,28,10,32,9.90
2015,04,28,10,33,9.90
2015,04,28,10,34,9.90
2015,04,28,10,35,9.90
2015,04,28,10,36,9.90
2015,04,28,10,37,9.90
2015,04,28,10,38,9.90
2015,04,28,10,39,9.90
2015,04,28,10,40,9.90
2015,04,28,10,41,9.90
2015,04,28,10,42,9.90
2015,04,28,10,43,9.90
2015,04,28,10,44,9.90
2015,04,28,10,45,9.90
2015,04,28,10,46,10.10
2015,04,28,10,47,10.10
2015,04,28,10,48,10.10
2015,04,28,10,49,10.10
2015,04,28,10,50,10.10
2015,04,28,10,51,10.10
2015,04,28,10,52,10.10
2015,04,28,10,53,10.10
2015,04,28,10,54,10.10
2015,04,28,10,55,10.10
2015,04,28,10,56,10.10
2015,04,28,10,57,10.10
2015,04,28,10,58,10.10
2015,04,28,10,59,10.10
2015,04,28,11,00,10.10
2015,04,28,11,01,10.10
2015,04,28,11,02,10.10
2015,04,28,11,03,10.10
2015,04,28,11,04,10.10
2015,04,28,11,05,10.10
2015,04,28,11,06,10.10
2015,04,28,11,07,10.10
2015,04,28,11,08,10.10
2015,04,28,11,09,10.10
2015,04,28,11,10,10.10
2015,04,28,11,11,10.10
2015,04,28,11,12,10.10
2015,04,28,11,13,10.10
2015,04,28,11,14,10.10
2015,04,28,11,15,10.10
2015,04,28,11,16,9.80
2015,04,28,11,17,9.80
2015,04,28,11,18,9.80
2015,04,28,11,19,9.80
2015,04,28,11,20,9.80
2015,04,28,11,21,9.80
2015,04,28,11,22,9.80
2015,04,28,11,23,9.80
2015,04,28,11,24,9.80
2015,04,28,11,25,9.80
2015,04,28,11,26,9.80
2015,04,28,11,27,9.80
2015,04,28,11,28,9.80
2015,04,28,11,29,9.80
2015,04,28,11,30,9.80
2015,04,28,11,31,9.80
2015,04,28,11,32,9.80
2015,04,28,11,33,9.80
2015,04,28,11,34,9.80
2015,04,28,11,35,9.80
2015,04,28,11,36,9.80
2015,04,28,11,37,9.80
2015,04,28,11,38,9.80
2015,04,28,11,39,9.80
2015,04,28,11,40,9.80
2015,04,28,11,41,9.80
2015,04,28,11,42,9.80
2015,04,28,11,43,9.80
2015,04,28,11,44,9.80
2015,04,28,11,45,9.80
2015,04,28,11,46,9.90
2015,04,28,11,47,9.90
2015,04,28,11,48,9.90
2015,04,28,11,49,9.90
2015,04,28,11,50,9.90
2015,04,28,11,51,9.90
2015,04,28,11,52,9.90
2015,04,28,11,53,9.90
2015,04,28,11,54,9.90
2015,04,28,11,55,9.90
2015,04,28,11,56,9.90
2015,04,28,11,57,9.90
2015,04,28,11,58,9.90
2015,04,28,11,59,9.90
2015,04,28,12,00,9.90
2015,04,28,12,01,9.90
2015,04,28,12,02,9.90
2015,04,28,12,03,9.90
2015,04,28,12,04,9.90
2015,04,28,12,05,9.90
2015,04,28,12,06,9.90
2015,04,28,12,07,9.90
2015,04,28,12,08,9.90
2015,04,28,12,09,9.90
2015,04,28,12,10,9.90
2015,04,28,12,11,9.90
2015,04,28,12,12,9.90
2015,04,28,12,13,9.90
2015,04,28,12,14,9.90
2015,04,28,12,15,9.90
2015,04,28,12,16,9.80
2015,04,28,12,17,9.80
2015,04,28,12,18,9.80
2015,04,28,12,19,9.80
2015,04,28,12,20,9.80
2015,04,28,12,21,9.80
2015,04,28,12,22,9.80
2015,04,28,12,23,9.80
2015,04,28,12,24,9.80
2015,04,28,12,25,9.80
2015,04,28,12,26,9.80
2015,04,28,12,27,9.80
2015,04,28,12,28,9.80
2015,04,28,12,29,9.80
2015,04,28,12,30,9.80
2015,04,28,12,31,9.80
2015,04,28,12,32,9.80
2015,04,28,12,33,9.80
2015,04,28,12,34,9.80
2015,04,28,12,35,9.80
2015,04,28,12,36,9.80
2015,04,28,12,37,9.80
2015,04,28,12,38,9.80
2015,04,28,12,39,9.80
2015,04,28,12,40,9.80
2015,04,28,12,41,9.80
2015,04,28,12,42,9.80
2015,04,28,12,43,9.80
2015,04,28,12,44,9.80
2015,04,28,12,45,9.80
2015,04,28,12,46,9.90
2015,04,28,12,47,9.90
2015,04,28,12,48,9.90
2015,04,28,12,49,9.90
2015,04,28,12,50,9.90
2015,04,28,12,51,9.90
2015,04,28,12,52,9.90
2015,04,28,12,53,9.90
2015,04,28,12,54,9.90
2015,04,28,12,55,9.90
2015,04,28,12,56,9.90
2015,04,28,12,57,9.90
2015,04,28,12,58,9.90
2015,04,28,12,59,9.90
2015,04,28,13,00,9.90
2015,04,28,13,01,9.90
2015,04,28,13,02,9.90
2015,04,28,13,03,9.90
2015,04,28,13,04,9.90
2015,04,28,13,05,9.90
2015,04,28,13,06,9.90
2015,04,28,13,07,9.90
2015,04,28,13,08,9.90
2015,04,28,13,09,9.90
2015,04,28,13,10,9.90
2015,04,28,13,11,9.90
2015,04,28,13,12,9.90
2015,04,28,13,13,9.90
2015,04,28,13,14,9.90
2015,04,28,13,15,9.90
2015,04,28,13,16,10.30
2015,04,28,13,17,10.30
2015,04,28,13,18,10.30
2015,04,28,13,19,10.30
2015,04,28,13,20,10.30
2015,04,28,13,21,10.30
2015,04,28,13,22,10.30
2015,04,28,13,23,10.30
2015,04,28,13,24,10.30
2015,04,28,13,25,10.30
2015,04,28,13,26,10.30
2015,04,28,13,27,10.30
2015,04,28,13,28,10.30
2015,04,28,13,29,10.30
2015,04,28,13,30,10.30
2015,04,28,13,31,10.30
2015,04,28,13,32,10.30
2015,04,28,13,33,10.30
2015,04,28,13,34,10.30
2015,04,28,13,35,10.30
2015,04,28,13,36,10.30
2015,04,28,13,37,10.30
2015,04,28,13,38,10.30
2015,04,28,13,39,10.30
2015,04,28,13,40,10.30
2015,04,28,13,41,10.30
2015,04,28,13,42,10.30
2015,04,28,13,43,10.30
2015,04,28,13,44,10.30
2015,04,28,13,45,10.30
2015,04,28,13,46,10.60
2015,04,28,13,47,10.60
2015,04,28,13,48,10.60
2015,04,28,13,49,10.60
2015,04,28,13,50,10.60
2015,04,28,13,51,10.60
2015,04,28,13,52,10.60
2015,04,28,13,53,10.60
2015,04,28,13,54,10.60
2015,04,28,13,55,10.60
2015,04,28,13,56,10.60
2015,04,28,13,57,10.60
2015,04,28,13,58,10.60
2015,04,28,13,59,10.60
2015,04,28,14,00,10.60
2015,04,28,14,01,10.60
2015,04,28,14,02,10.60
2015,04,28,14,03,10.60
2015,04,28,14,04,10.60
2015,04,28,14,05,10.60
2015,04,28,14,06,10.60
2015,04,28,14,07,10.60
2015,04,28,14,08,10.60
2015,04,28,14,09,10.60
2015,04,28,14,10,10.60
2015,04,28,14,11,10.60
2015,04,28,14,12,10.60
2015,04,28,14,13,10.60
2015,04,28,14,14,10.60
2015,04,28,14,15,10.60
2015,04,28,14,16,10.70
2015,04,28,14,17,10.70
2015,04,28,14,18,10.70
2015,04,28,14,19,10.70
2015,04,28,14,20,10.70
2015,04,28,14,21,10.70
2015,04,28,14,22,10.70
2015,04,28,14,23,10.70
2015,04,28,14,24,10.70
2015,04,28,14,25,10.70
2015,04,28,14,26,10.70
2015,04,28,14,27,10.70
2015,04,28,14,28,10.70
2015,04,28,14,29,10.70
2015,04,28,14,30,10.70
2015,04,28,14,31,10.70
2015,04,28,14,32,10.70
2015,04,28,14,33,10.70
2015,04,28,14,34,10.70
2015,04,28,14,35,10.70
2015,04,28,14,36,10.70
2015,04,28,14,37,10.70
2015,04,28,14,38,10.70
2015,04,28,14,39,10.70
2015,04,28,14,40,10.70
2015,04,28,14,41,10.70
2015,04,28,14,42,10.70
2015,04,28,14,43,10.70
2015,04,28,14,44,10.70
2015,04,28,14,45,10.70
2015,04,28,14,46,10.80
2015,04,28,14,47,10.80
2015,04,28,14,48,10.80
2015,04,28,14,49,10.80
2015,04,28,14,50,10.80
2015,04,28,14,51,10.80
2015,04,28,14,52,10.80
2015,04,28,14,53,10.80
2015,04,28,14,54,10.80
2015,04,28,14,55,10.80
2015,04,28,14,56,10.80
2015,04,28,14,57,10.80
2015,04,28,14,58,10.80
2015,04,28,14,59,10.80
2015,04,28,15,00,10.80
2015,04,28,15,01,10.80
2015,04,28,15,02,10.80
2015,04,28,15,03,10.80
2015,04,28,15,04,10.80
2015,04,28,15,05,10.80
2015,04,28,15,06,10.80
2015,04,28,15,07,10.80
2015,04,28,15,08,10.80
2015,04,28,15,09,10.80
2015,04,28,15,10,10.80
2015,04,28,15,11,10.80
2015,04,28,15,12,10.80
2015,04,28,15,13,10.80
2015,04,28,15,14,10.80
2015,04,28,15,15,10.80
2015,04,28,15,16,11.00
2015,04,28,15,17,11.00
2015,04,28,15,18,11.00
2015,04,28,15,19,11.00
2015,04,28,15,20,11.00
2015,04,28,15,21,11.00
2015,04,28,15,22,11.00
2015,04,28,15,23,11.00
2015,04,28,15,24,11.00
2015,04,28,15,25,11.00
2015,04,28,15,26,11.00
2015,04,28,15,27,11.00
2015,04,28,15,28,11.00
2015,04,28,15,29,11.00
2015,04,28,15,30,11.00
2015,04,28,15,31,11.00
2015,04,28,15,32,11.00
2015,04,28,15,33,11.00
2015,04,28,15,34,11.00
2015,04,28,15,35,11.00
2015,04,28,15,36,11.00
2015,04,28,15,37,11.00
2015,04,28,15,38,11.00
2015,04,28,15,39,11.00
2015,04,28,15,40,11.00
2015,04,28,15,41,11.00
2015,04,28,15,42,11.00
2015,04,28,15,43,11.00
2015,04,28,15,44,11.00
2015,04,28,15,45,11.00
2015,04,28,15,46,11.10
2015,04,28,15,47,11.10
2015,04,28,15,48,11.10
2015,04,28,15,49,11.10
2015,04,28,15,50,11.10
2015,04,28,15,51,11.10
2015,04,28,15,52,11.10
2015,04,28,15,53,11.10
2015,04,28,15,54,11.10
2015,04,28,15,55,11.10
2015,04,28,15,56,11.10
2015,04,28,15,57,11.10
2015,04,28,15,58,11.10
2015,04,28,15,59,11.10
2015,04,28,16,00,11.10
2015,04,28,16,01,11.10
2015,04,28,16,02,11.10
2015,04,28,16,03,11.10
2015,04,28,16,04,11.10
2015,04,28,16,05,11.10
2015,04,28,16,06,11.10
2015,04,28,16,07,11.10
2015,04,28,16,08,11.10
2015,04,28,16,09,11.10
2015,04,28,16,10,11.10
2015,04,28,16,11,11.10
2015,04,28,16,12,11.10
2015,04,28,16,13,11.10
2015,04,28,16,14,11.10
2015,04,28,16,15,11.10
2015,04,28,16,16,11.30
2015,04,28,16,17,11.30
2015,04,28,16,18,11.30
2015,04,28,16,19,11.30
2015,04,28,16,20,11.30
2015,04,28,16,21,11.30
2015,04,28,16,22,11.30
2015,04,28,16,23,11.30
2015,04,28,16,24,11.30
2015,04,28,16,25,11.30
2015,04,28,16,26,11.30
2015,04,28,16,27,11.30
2015,04,28,16,28,11.30
2015,04,28,16,29,11.30
2015,04,28,16,30,11.30
2015,04,28,16,31,11.30
2015,04,28,16,32,11.30
2015,04,28,16,33,11.30
2015,04,28,16,34,11.30
2015,04,28,16,35,11.30
2015,04,28,16,36,11.30
2015,04,28,16,37,11.30
2015,04,28,16,38,11.30
2015,04,28,16,39,11.30
2015,04,28,16,40,11.30
2015,04,28,16,41,11.30
2015,04,28,16,42,11.30
2015,04,28,16,43,11.30
2015,04,28,16,44,11.30
2015,04,28,16,45,11.30
2015,04,28,16,46,11.30
2015,04,28,16,47,11.30
2015,04,28,16,48,11.30
2015,04,28,16,49,11.30
2015,04,28,16,50,11.30
2015,04,28,16,51,11.30
2015,04,28,16,52,11.30
2015,04,28,16,53,11.30
2015,04,28,16,54,11.30
2015,04,28,16,55,11.30
2015,04,28,16,56,11.30
2015,04,28,16,57,11.30
2015,04,28,16,58,11.30
2015,04,28,16,59,11.30
2015,04,28,17,00,11.30
2015,04,28,17,01,11.30
2015,04,28,17,02,11.30
2015,04,28,17,03,11.30
2015,04,28,17,04,11.30
2015,04,28,17,05,11.30
2015,04,28,17,06,11.30
2015,04,28,17,07,11.30
2015,04,28,17,08,11.30
2015,04,28,17,09,11.30
2015,04,28,17,10,11.30
2015,04,28,17,11,11.30
2015,04,28,17,12,11.30
2015,04,28,17,13,11.30
2015,04,28,17,14,11.30
2015,04,28,17,15,11.30
2015,04,28,17,16,11.60
2015,04,28,17,17,11.60
2015,04,28,17,18,11.60
2015,04,28,17,19,11.60
2015,04,28,17,20,11.60
2015,04,28,17,21,11.60
2015,04,28,17,22,11.60
2015,04,28,17,23,11.60
2015,04,28,17,24,11.60
2015,04,28,17,25,11.60
2015,04,28,17,26,11.60
2015,04,28,17,27,11.60
2015,04,28,17,28,11.60
2015,04,28,17,29,11.60
2015,04,28,17,30,11.60
2015,04,28,17,31,11.60
2015,04,28,17,32,11.60
2015,04,28,17,33,11.60
2015,04,28,17,34,11.60
2015,04,28,17,35,11.60
2015,04,28,17,36,11.60
2015,04,28,17,37,11.60
2015,04,28,17,38,11.60
2015,04,28,17,39,11.60
2015,04,28,17,40,11.60
2015,04,28,17,41,11.60
2015,04,28,17,42,11.60
2015,04,28,17,43,11.60
2015,04,28,17,44,11.60
2015,04,28,17,45,11.60
2015,04,28,17,46,11.80
2015,04,28,17,47,11.80
2015,04,28,17,48,11.80
2015,04,28,17,49,11.80
2015,04,28,17,50,11.80
2015,04,28,17,51,11.80
2015,04,28,17,52,11.80
2015,04,28,17,53,11.80
2015,04,28,17,54,11.80
2015,04,28,17,55,11.80
2015,04,28,17,56,11.80
2015,04,28,17,57,11.80
2015,04,28,17,58,11.80
2015,04,28,17,59,11.80
2015,04,28,18,00,11.80
2015,04,28,18,01,11.80
2015,04,28,18,02,11.80
2015,04,28,18,03,11.80
2015,04,28,18,04,11.80
2015,04,28,18,05,11.80
2015,04,28,18,06,11.80
2015,04,28,18,07,11.80
2015,04,28,18,08,11.80
2015,04,28,18,09,11.80
2015,04,28,18,10,11.80
2015,04,28,18,11,11.80
2015,04,28,18,12,11.80
2015,04,28,18,13,11.80
2015,04,28,18,14,11.80
2015,04,28,18,15,11.80
2015,04,28,18,16,11.90
2015,04,28,18,17,11.90
2015,04,28,18,18,11.90
2015,04,28,18,19,11.90
2015,04,28,18,20,11.90
2015,04,28,18,21,11.90
2015,04,28,18,22,11.90
2015,04,28,18,23,11.90
2015,04,28,18,24,11.90
2015,04,28,18,25,11.90
2015,04,28,18,26,11.90
2015,04,28,18,27,11.90
2015,04,28,18,28,11.90
2015,04,28,18,29,11.90
2015,04,28,18,30,11.90
2015,04,28,18,31,11.90
2015,04,28,18,32,11.90
2015,04,28,18,33,11.90
2015,04,28,18,34,11.90
2015,04,28,18,35,11.90
2015,04,28,18,36,11.90
2015,04,28,18,37,11.90
2015,04,28,18,38,11.90
2015,04,28,18,39,11.90
2015,04,28,18,40,11.90
2015,04,28,18,41,11.90
2015,04,28,18,42,11.90
2015,04,28,18,43,11.90
2015,04,28,18,44,11.90
2015,04,28,18,45,11.90